User: anonymous   Login
Location: ??????
(42.0089°N, 44.3281°E)
Time: 08:28:46
(UTC+00:00)
Language:

Cosmos 1844 Rocket - Orbit

View from above orbital plane
View from above orbital plane
View from above satellite
View from above satellite

Ground track
Ground track

The orbit data is extracted from the following two-line orbital elements,

1 17974U 87041B   22019.61986243 -.00000269  00000-0 -10914-3 0  9998
2 17974  71.0094 335.5220 0014434 342.0437 190.8898 14.17284246794103
Epoch (UTC): 19 January 2022 14:52:36
Eccentricity: 0.0014434
inclination: 71.0094°
perigee height: 824 km
apogee height: 845 km
right ascension of ascending node: 335.5220°
argument of perigee: 342.0437°
revolutions per day: 14.17284246
mean anomaly at epoch: 190.8898°
orbit number at epoch: 79410

The dashed part of the orbit path shows where the satellite is in the earth's shadow,  

DLR